Theta_e
303 304 303 302 303 303 304 305 304 304 304 304 303 304 305 305 306 305 304 304 304 304 304 304 305 307 306 311 313 310 304 309 319 318 317 317 318 318 317 317 317 318 318 319 318 318 319
303 302 302 302 302 303 305 305 304 303 302 301 302 305 304 303 304 304 304 304 304 304 304 304 305 307 309 311 310 308 308 306 310 318 317 317 318 317 316 316 317 318 319 318 319 319 319
303 303 302 302 302 301 303 302 302 302 302 303 304 304 303 303 303 304 304 304 304 303 303 303 306 308 309 310 308 308 310 309 307 306 313 319 318 316 316 317 318 318 319 319 319 319 319
303 303 303 303 301 302 302 301 301 303 303 302 303 303 303 304 304 304 304 304 303 303 304 306 307 310 310 307 307 308 308 309 312 306 309 314 316 318 317 317 318 319 318 319 320 320 320
303 303 303 303 302 301 301 300 302 303 302 301 301 302 302 303 304 304 304 303 305 305 307 307 311 311 310 306 307 306 307 312 312 308 307 312 314 316 318 318 320 321 321 320 321 321 320
302 302 303 303 302 300 302 301 300 303 302 301 300 302 303 303 303 304 304 306 307 308 310 310 310 312 311 307 309 312 312 309 314 311 309 310 314 316 317 319 321 322 322 322 322 322 320
303 303 302 302 302 302 301 303 301 301 302 300 300 301 302 302 303 304 306 309 310 313 309 309 310 312 310 310 309 312 315 315 315 313 311 312 313 316 318 319 320 320 322 322 322 320 319
301 301 302 302 301 301 300 302 301 300 301 300 299 299 301 301 302 303 307 309 308 307 310 308 309 309 308 308 308 310 314 315 318 318 313 313 315 314 315 317 318 318 320 321 321 319 318
300 300 300 300 301 302 301 301 301 300 299 299 298 298 300 301 302 306 307 308 307 307 310 310 310 310 310 309 308 308 312 313 318 317 318 316 315 316 316 318 318 319 320 320 320 320 319
300 300 300 300 300 301 301 300 300 299 297 298 298 298 299 300 304 307 307 307 307 307 313 309 310 311 311 309 309 308 309 314 313 318 317 318 315 317 318 319 320 321 320 319 319 320 321
300 299 299 299 299 299 300 299 298 299 297 297 297 298 298 300 303 306 306 307 307 308 315 306 311 310 311 310 309 309 308 308 314 314 316 317 316 315 316 319 319 320 319 320 319 320 321
300 300 299 300 297 298 297 298 298 299 297 296 297 297 298 301 304 306 306 307 309 317 313 307 308 310 310 311 311 309 311 309 309 312 313 316 316 317 316 316 317 318 318 319 320 321 324
298 298 299 299 298 297 297 298 298 298 297 296 297 297 297 301 303 305 306 309 314 312 308 310 309 309 310 311 312 311 312 311 309 311 313 312 316 317 315 316 317 317 319 322 323 325 325
298 298 297 298 298 298 298 297 298 297 296 297 296 296 298 300 302 304 307 311 311 307 307 309 309 309 309 311 313 312 313 314 309 312 314 313 317 316 317 316 316 318 319 322 324 328 325
297 297 297 298 298 298 298 298 295 296 297 296 296 297 299 301 302 303 308 312 307 307 307 308 307 307 308 311 311 312 313 316 312 310 312 313 311 314 316 317 316 319 320 318 322 323 328
297 296 296 297 297 296 297 296 296 296 297 297 297 298 300 301 302 304 307 307 306 306 308 307 306 308 309 310 312 312 315 316 316 313 312 313 313 312 315 317 317 317 319 320 321 325 326
295 295 296 296 296 297 297 296 295 296 297 296 297 300 302 302 303 306 309 306 305 305 307 307 307 309 309 310 310 311 314 315 315 315 314 313 316 315 316 318 318 317 320 322 321 322 325
295 295 295 296 296 296 295 295 294 295 296 296 298 301 302 303 305 305 307 305 305 305 306 306 307 309 309 309 310 310 311 311 313 314 321 315 317 317 320 316 318 319 320 322 324 326 324
295 294 295 295 296 295 295 296 296 296 296 298 299 300 300 303 306 307 304 304 304 305 305 306 306 307 307 309 309 309 309 310 310 311 315 318 316 318 320 319 318 318 319 320 322 323 326
295 294 295 295 296 296 295 295 295 295 296 297 300 303 301 305 305 305 304 305 305 305 306 305 306 307 308 308 308 309 309 309 309 309 312 316 320 316 317 319 318 320 320 320 321 325 324
294 294 295 295 295 295 295 296 296 296 295 296 299 301 302 304 303 304 305 307 305 306 305 305 306 306 307 308 308 309 310 309 309 309 310 316 321 320 316 317 317 319 320 319 320 321 322
294 294 294 294 295 294 295 295 295 295 295 296 301 300 301 302 303 303 304 305 306 306 306 305 306 306 307 307 308 310 309 310 311 309 310 315 318 316 319 315 315 317 317 318 317 317 317
294 294 294 294 295 295 295 294 294 294 295 297 297 298 301 301 301 304 305 302 303 303 305 307 306 307 307 307 308 309 309 309 310 310 311 312 313 317 318 315 314 315 316 317 317 317 317
293 294 294 294 294 294 295 295 294 294 295 295 297 298 300 301 301 302 302 304 304 304 304 306 306 308 307 307 308 307 308 308 308 309 310 311 313 314 318 316 320 314 313 313 315 315 315
294 294 294 294 294 294 295 295 294 294 295 297 296 298 299 301 300 300 302 303 302 303 304 305 306 306 307 307 307 308 310 310 311 310 310 310 312 315 315 316 314 312 312 312 312 311 311
293 293 294 294 293 293 294 293 294 294 295 296 296 297 298 300 300 300 300 301 303 303 304 305 305 305 305 307 311 310 311 310 311 311 310 310 311 315 315 315 314 312 313 314 312 312 315
295 295 294 294 293 293 293 293 293 294 295 295 297 296 298 298 299 299 301 303 303 303 305 305 306 305 305 309 310 312 312 310 313 313 312 313 312 313 314 314 312 311 312 311 316 317 315
295 295 296 295 294 294 294 294 294 294 294 295 296 296 297 299 299 299 300 300 302 304 306 305 305 305 306 310 309 310 311 310 310 312 312 311 312 313 313 314 314 312 312 313 318 315 315
297 297 297 297 295 294 294 293 293 293 293 293 295 295 296 298 298 298 298 298 300 301 302 304 306 307 307 309 309 310 311 311 310 311 313 312 311 312 311 313 313 313 316 315 314 314 314
Wind_Speed
8 8 10 10 11 12 12 13 12 13 16 18 19 19 19 20 21 22 24 25 25 26 26 26 23 21 14 8 18 17 9 9 4 8 16 17 19 19 22 20 19 22 21 19 16 13 11
9 10 9 10 12 13 14 12 12 13 16 18 19 19 21 22 22 24 25 25 26 27 28 27 23 16 11 17 14 10 6 3 6 9 16 16 16 16 17 21 18 20 18 22 15 15 16
10 11 10 12 11 13 15 18 17 18 16 15 17 20 21 24 23 25 25 28 30 30 32 27 18 11 12 23 8 5 9 8 10 15 18 19 17 14 13 17 16 17 21 17 20 18 16
13 12 12 13 13 12 14 17 14 15 18 19 17 20 22 24 24 25 28 30 35 31 23 14 10 11 9 10 12 22 18 19 13 19 18 20 17 15 18 14 16 15 20 18 19 19 19
10 12 13 13 13 16 16 16 14 15 18 21 21 21 22 23 25 26 30 32 27 15 7 1 8 11 9 4 9 15 16 17 9 20 20 16 14 16 17 16 14 17 15 21 18 15 10
14 15 15 14 15 16 15 14 15 16 16 20 22 22 22 23 23 26 31 25 18 10 5 6 7 7 6 6 8 4 6 11 8 11 13 15 10 15 18 16 16 17 18 18 17 13 12
13 14 14 14 13 13 16 15 14 16 16 16 20 22 23 23 22 24 25 27 4 8 8 14 15 16 14 2 13 8 8 9 10 11 17 17 15 21 25 24 22 20 18 15 13 5 8
15 14 14 14 16 17 16 16 14 19 15 15 19 20 21 23 22 19 19 7 5 7 13 16 19 18 24 22 10 12 11 14 14 14 15 15 22 21 22 24 23 24 24 15 14 2 7
17 16 16 17 17 17 16 15 14 15 19 18 21 19 19 21 21 11 11 8 9 11 7 10 5 5 4 9 14 14 15 14 13 15 19 23 19 20 22 21 22 21 22 18 17 7 9
18 17 17 18 18 17 16 16 15 15 18 19 21 19 17 19 12 12 9 10 10 9 5 5 3 4 3 2 5 22 12 13 6 17 18 19 23 10 20 24 18 21 18 19 16 15 13
17 18 18 19 17 18 18 17 19 15 17 16 19 18 16 10 16 15 12 13 12 2 6 4 5 3 4 5 8 4 16 19 16 14 13 19 10 18 23 19 20 21 15 15 16 17 15
20 18 19 16 18 18 21 19 18 15 15 18 17 18 16 13 9 14 13 15 10 5 5 3 1 5 7 8 7 2 4 11 12 20 16 18 15 14 14 19 18 16 11 11 13 14 15
19 19 18 18 18 19 20 19 18 15 15 14 16 17 15 14 13 11 13 12 7 6 5 2 2 7 10 7 4 9 6 10 10 12 21 20 21 14 13 19 18 18 14 9 11 12 14
20 19 21 20 20 20 18 18 16 14 16 15 16 20 17 16 14 11 12 8 10 3 4 3 5 11 5 5 3 6 7 8 15 16 12 18 14 22 12 15 18 20 18 9 14 11 14
23 20 20 21 22 20 18 18 19 18 16 15 16 18 19 17 14 14 7 10 5 6 3 6 11 10 3 3 6 4 8 1 5 18 14 12 21 10 14 12 15 17 21 21 18 10 7
18 19 21 22 21 18 18 17 18 16 14 13 14 13 21 15 14 15 6 14 12 6 4 5 7 1 5 5 6 7 2 7 2 10 17 13 10 15 14 14 19 22 12 18 11 12 12
21 21 21 22 21 19 20 18 15 14 12 10 8 4 5 13 17 6 10 15 12 9 6 8 8 7 7 6 5 7 2 5 10 9 10 14 11 9 11 18 19 15 18 13 15 14 9
24 20 21 21 21 21 21 16 18 16 12 11 8 4 5 16 7 5 11 17 15 10 13 14 9 12 11 9 9 5 5 4 7 12 8 15 6 11 18 20 20 18 21 20 10 9 12
22 24 22 22 22 21 19 21 19 16 15 13 5 7 11 14 8 12 13 16 17 15 16 13 13 14 13 11 6 7 10 4 6 7 9 13 8 9 15 11 9 14 19 20 20 14 12
24 24 24 24 22 21 19 20 19 16 17 18 3 4 8 8 9 12 15 14 17 16 19 15 12 12 10 12 11 9 8 3 5 3 5 11 11 14 12 12 13 15 7 10 10 10 13
26 24 24 23 22 23 22 22 20 19 21 14 5 6 6 8 14 17 15 7 19 17 15 15 13 16 15 15 14 15 15 12 7 5 4 5 6 11 9 5 5 6 14 11 12 12 10
26 25 24 26 26 27 25 24 24 22 23 16 3 5 10 11 13 18 19 17 16 14 15 16 16 16 16 17 14 9 8 6 10 5 5 7 3 9 8 6 6 7 9 11 13 12 12
27 27 26 25 25 25 24 25 26 26 23 10 16 15 4 8 16 13 12 18 20 17 12 16 13 13 13 12 10 11 11 8 12 12 10 8 7 4 4 7 8 8 14 14 13 14 13
30 29 29 28 27 26 26 26 26 26 29 19 8 13 6 10 11 13 19 16 14 15 17 12 14 13 7 5 7 11 13 14 15 17 14 12 10 10 5 5 4 6 5 3 12 13 11
33 32 31 30 29 29 27 26 28 28 27 27 23 10 6 9 14 17 15 14 12 10 16 12 11 8 4 4 4 8 10 12 14 20 18 15 11 5 5 7 10 5 3 9 7 7 3
39 36 35 34 33 32 30 30 30 29 28 29 25 24 6 6 13 17 18 16 12 12 12 9 4 4 4 2 3 7 8 11 10 8 19 16 12 9 5 11 11 5 3 2 3 7 11
43 42 42 40 38 35 33 32 31 30 28 27 14 28 11 6 16 14 7 9 10 11 9 1 3 4 8 4 5 6 8 4 5 9 15 14 12 14 11 8 6 8 9 0 11 5 9
43 43 46 44 42 39 35 33 32 31 31 29 26 23 23 6 16 16 17 14 11 4 4 2 2 4 4 6 5 6 4 4 6 3 15 13 10 9 13 10 13 8 3 7 8 4 8
35 29 28 37 44 40 36 34 33 31 31 30 23 26 25 7 8 10 26 29 23 16 7 5 7 2 8 7 6 2 4 2 7 5 12 9 10 8 11 9 3 3 7 8 7 7 8
Wind_Direction
316 319 316 318 317 318 317 319 323 322 322 322 317 321 323 320 322 319 321 320 318 318 316 314 315 322 333 257 253 287 317 351 350 214 228 230 221 226 227 235 234 233 243 263 253 244 235
310 306 309 313 314 314 329 322 313 311 315 316 315 320 321 322 321 317 319 321 318 316 313 309 308 306 276 265 270 257 266 330 327 244 252 241 233 229 244 247 250 242 242 260 245 240 233
298 299 304 307 311 304 313 316 318 323 319 319 320 319 321 322 320 316 315 317 315 311 307 302 293 261 253 246 265 239 255 252 270 283 277 254 252 263 256 257 263 263 262 257 249 241 239
292 295 301 297 300 299 305 313 310 317 318 321 323 321 322 320 318 317 318 316 312 308 303 295 260 214 256 280 268 248 255 247 256 263 255 265 271 262 255 274 265 255 243 254 249 224 233
292 299 294 297 293 297 304 305 310 313 315 316 320 319 319 317 320 322 318 318 315 302 308 278 172 215 274 311 251 255 243 249 255 253 242 253 249 248 236 235 246 237 246 232 249 222 235
292 286 289 286 290 298 300 296 296 310 312 317 321 319 316 320 325 325 322 317 300 269 243 244 258 219 251 298 329 301 238 221 231 249 220 228 236 235 233 231 231 239 220 243 259 203 206
283 285 283 292 297 287 293 291 296 311 306 313 321 318 318 323 327 329 326 323 248 210 256 278 290 267 293 260 330 234 182 192 199 240 223 203 220 225 226 224 246 256 263 276 245 223 210
288 293 296 290 286 283 290 295 291 297 313 317 320 318 319 323 327 325 313 351 20 332 297 279 260 263 265 269 279 277 180 215 225 238 219 251 228 232 239 240 235 242 253 255 266 131 237
287 286 288 289 294 284 278 282 295 290 303 312 317 317 317 321 325 298 315 323 314 331 271 302 260 281 311 232 231 249 194 221 188 205 253 232 234 225 249 235 238 229 241 247 260 224 229
277 279 282 279 283 292 282 279 286 291 299 298 308 315 318 324 305 312 283 320 324 329 282 130 145 107 143 247 225 241 241 226 224 220 213 264 240 228 226 239 226 242 232 245 256 258 256
279 282 277 282 279 286 286 279 286 283 294 310 302 312 312 313 302 297 311 313 310 302 290 80 107 88 122 242 327 183 225 234 247 224 243 238 241 233 243 235 226 244 258 246 234 252 259
281 276 275 279 282 282 287 283 284 277 287 298 300 308 309 300 268 274 299 308 280 238 234 145 128 339 292 239 225 190 218 234 254 260 249 260 269 233 251 248 244 252 216 246 236 244 241
289 285 277 276 277 275 278 282 281 274 289 294 295 299 292 280 268 318 301 277 248 244 116 87 349 320 303 282 219 202 195 188 193 219 239 244 249 230 211 237 233 227 200 211 219 223 234
285 282 284 277 278 269 273 276 279 276 285 285 291 296 281 260 257 274 277 237 249 1 250 348 298 306 289 346 153 220 183 237 223 231 248 232 222 234 189 212 234 209 206 214 215 231 223
282 277 280 279 279 273 260 271 277 281 283 280 293 285 261 251 239 237 254 226 247 267 353 292 297 269 218 347 291 272 218 259 240 224 215 259 237 209 201 203 245 218 224 233 265 250 277
282 277 282 279 278 271 267 264 273 272 269 263 287 302 267 239 215 213 219 235 245 243 279 258 268 246 276 358 319 314 136 18 359 247 235 253 272 242 207 205 218 251 228 221 230 245 238
278 281 280 280 269 266 269 263 263 267 263 250 270 264 228 192 192 207 220 222 243 245 219 248 254 259 268 309 321 313 360 116 18 352 274 250 259 231 219 206 213 213 241 249 230 222 236
276 274 274 273 271 269 266 246 263 254 246 235 240 235 181 172 192 200 226 228 263 265 235 249 264 264 267 287 296 290 267 314 38 336 298 224 286 227 238 215 228 219 216 230 233 212 235
272 275 272 272 270 268 258 252 255 248 222 238 234 239 244 191 215 220 224 242 251 243 241 232 232 245 265 273 271 246 258 65 11 324 348 353 234 244 213 187 218 232 222 231 228 238 217
271 272 269 269 261 261 259 249 249 248 225 226 257 233 221 201 243 254 228 231 227 224 255 236 248 251 247 246 250 263 263 301 332 2 346 321 249 253 236 243 199 212 204 224 236 212 231
272 270 270 265 258 257 254 247 241 233 221 209 213 245 220 212 228 226 243 245 222 226 226 239 232 244 243 249 248 251 266 263 269 144 177 303 280 302 247 323 311 250 191 203 225 232 255
270 269 267 263 258 255 251 245 235 225 215 215 213 231 241 254 246 227 222 234 257 233 218 219 237 237 237 245 249 268 263 281 285 298 307 188 294 306 279 239 255 251 241 239 229 243 242
268 265 262 258 254 251 250 246 235 224 217 211 228 249 296 252 245 237 226 230 234 248 245 244 237 255 241 253 307 296 302 249 270 281 286 279 237 212 265 267 294 262 241 236 237 239 239
266 263 261 256 249 245 244 242 232 225 212 212 221 217 234 247 247 241 244 225 229 244 242 254 261 231 260 352 304 271 265 262 253 248 249 255 250 242 219 199 223 238 54 239 239 247 250
265 262 258 254 248 242 238 236 229 229 219 214 228 228 225 244 248 248 246 256 252 248 236 262 263 281 353 25 308 263 237 240 243 236 226 226 257 268 249 250 272 233 281 235 224 243 139
265 260 254 249 244 239 234 231 229 228 221 216 221 231 217 248 243 275 252 251 240 245 259 235 226 105 193 153 210 247 227 220 198 198 207 202 228 244 205 247 254 277 123 327 252 235 108
265 257 250 243 239 235 230 230 229 227 219 211 224 219 223 243 255 264 279 276 247 245 258 198 152 196 185 191 238 243 238 226 214 187 183 191 201 222 233 246 261 263 155 31 223 104 72
273 266 254 236 231 229 227 226 225 220 215 210 224 219 209 232 255 261 261 257 261 241 228 66 138 179 177 214 238 230 237 239 244 225 187 183 190 207 228 235 241 257 158 245 49 34 27
277 266 259 237 221 220 219 220 219 220 218 217 228 219 214 225 263 265 262 258 267 271 268 226 258 272 198 218 234 181 261 190 261 235 205 200 206 200 194 218 159 110 83 66 26 6 13